User: anonymous   Login
Location: Champaign/Urbana Astronomical Society Observatory
(40.0333°N, 88.2833°W)
Time: 15:58:08
(UTC-05:00)
Language:

SEEDS - Orbit

View from above orbital plane
View from above orbital plane
View from above satellite
View from above satellite

Ground track
Ground track

The orbit data is extracted from the following two-line orbital elements,

1 32791U 08021J   19145.60820859 +.00000155 +00000-0 +21142-4 0  9996
2 32791 097.5282 152.4072 0012315 324.3797 035.6599 14.90806137600445
Epoch (UTC): 25 May 2019 14:35:49
Eccentricity: 0.0012315
inclination: 97.5282°
perigee height: 587 km
apogee height: 604 km
right ascension of ascending node: 152.4072°
argument of perigee: 324.3797°
revolutions per day: 14.90806137
mean anomaly at epoch: 35.6599°
orbit number at epoch: 60044

The dashed part of the orbit path shows where the satellite is in the earth's shadow,  

DLR